Location: Faicchio
(41.2833°N, 14.4833°E)
Time: 06:51:31
(UTC+00:00)

ATLAS 5 CENTAUR R/B - Pass Details

Date: 15 June 2025
Orbit: 385 x 1113 km, 63.3° (Epoch: 16 July)

Event Time Altitude Azimuth Distance (km) Brightness Sun altitude
Exits shadow 01:32:34 40° 169° (S) 582 1.1 -16.6°
Maximum altitude 01:33:18 52° 121° (ESE) 488 1.0 -16.6°
Drops below altitude 10° 01:36:24 10° 44° (NE) 1,470 4.8 -16.2°
Sets 01:38:34 0° 39° (NE) 2,396 6.5 -16.0°
